Home   Weather   Dera Ghazi Khan   Past weeks
Flag for Pakistan

Past Weather in Dera Ghazi Khan, Pakistan — Yesterday and Last 2 Weeks

Now
55 °F

Clear.


Feels Like: 55 °F
Forecast: 44 / 71 °F
Wind: No wind

Location: Multan Airport

Current Time: Dec 18, 2018 at 10:20:55 pm

Latest Report: Dec 18, 2018 at 9:00 pm


Visibility: 2 mi

Pressure: 30.07 "Hg

Humidity: 72%

Dew Point: 46 °F

Location of Dera Ghazi KhanLocation

Past Weather in Dera Ghazi Khan — Graph

°F

Dera Ghazi Khan Temperature Yesterday

Maximum temperature yesterday: 73 °F (at 2:00 pm)
Minimum temperature yesterday: 43 °F (at 7:00 am)
Average temperature yesterday: 57 °F

High & Low Weather Summary for the Past Weeks

 TemperatureHumidityPressure
High75 °F (Dec 5, 1:00 pm)100% (Dec 13, 9:00 am)30.30 "Hg (Dec 13, 9:00 am)
Low43 °F (Dec 16, 8:00 am)29% (Dec 17, 4:00 pm)29.86 "Hg (Dec 5, 2:50 pm)
Average60 °F71%30.05 "Hg
* Reported Dec 3 9:00 pm — Dec 18 9:00 pm, Dera Ghazi Khan. Weather by CustomWeather, © 2018

Note: Actual official high and low records may vary slightly from our data, if they occured in-between our weather recording intervals... More about our weather records

Advertising

Dera Ghazi Khan Weather History for the Previous 24 Hours

Scroll right to see more
 ConditionsComfort  
Time TempWeatherWind HumidityBarometerVisibility
9:00 pm
Tue, Dec 18
55 °FClear.No wind72%30.07 "Hg2 mi
8:00 pm57 °FClear.No wind67%30.07 "Hg2 mi
7:00 pm64 °FClear.No wind52%30.04 "Hg2 mi
6:00 pm66 °FHaze.No wind46%30.04 "Hg2 mi
5:00 pm70 °FHaze.5 mph33%30.04 "Hg2 mi
4:00 pm72 °FHaze.5 mph29%30.04 "Hg3 mi
3:00 pm72 °FHaze.5 mph29%30.04 "Hg3 mi
2:00 pm72 °FHaze.7 mph29%30.07 "Hg3 mi
1:00 pm70 °FHaze.9 mph31%30.09 "Hg2 mi
12:00 pm68 °FHaze.5 mph38%30.12 "Hg2 mi
11:00 am64 °FHaze.5 mph46%30.15 "Hg2 mi
10:20 am59 °FClear.5 mph59%30.15 "Hg1 mi
10:00 am59 °FClear.5 mph59%30.15 "Hg1 mi
9:00 am52 °FClear.No wind77%30.15 "Hg1 mi
8:00 am45 °FFog.No wind81%30.12 "Hg1 mi
7:17 am43 °FFog.No wind93%30.12 "Hg1 mi
7:00 am43 °FFog.No wind93%30.12 "Hg1 mi
6:00 am45 °FFog.No wind87%30.09 "Hg2 mi
4:55 am45 °FClear.No wind87%30.09 "Hg2 mi
4:00 am46 °FClear.No wind82%30.09 "Hg2 mi
3:00 am48 °FClear.No wind82%30.12 "Hg2 mi
2:00 am48 °FClear.No wind82%30.12 "Hg2 mi
1:00 am50 °FClear.No wind76%30.12 "Hg2 mi
12:00 am50 °FClear.No wind82%30.15 "Hg2 mi
11:00 pm
Mon, Dec 17
52 °FClear.No wind77%30.15 "Hg2 mi
10:00 pm54 °FClear.No wind77%30.15 "Hg2 mi
Weather by CustomWeather, © 2018

See weather overview